DW7054 Weather Reports


Display with metric or nautical units.
time (UTC)temp
F
wind
direction
speed
MPH
gust
MPH
rain 1hr
in
rain 24hr
in
rain mn
in
humidity
%
barometer
mb
20200330013207 75 228 0.0 0.0 0.00 0.00 0.00 79 1018.5
20200330011607 75 228 0.0 0.0 0.00 0.00 0.00 77 1018.3
20200330010106 76 228 1.0 2.0 0.00 0.00 0.00 74 1018.3
20200330004607 77 230 0.0 0.0 0.00 0.00 0.00 71 1018.1
20200330003039 79 230 0.0 0.0 0.00 0.00 0.00 66 1018.0
20200330001633 81 230 0.0 0.0 0.00 0.00 0.00 64 1018.1
20200330000204 82 230 0.0 0.0 0.00 0.00 0.00 61 1017.8
20200329233123 85 230 0.0 0.0 0.00 0.00 0.00 57 1017.8
20200329231557 86 230 0.0 0.0 0.00 0.00 0.00 54 1017.7
20200329230113 87 230 0.0 0.0 0.00 0.00 0.00 52 1017.6
20200329223209 89 148 0.0 2.0 0.00 0.00 0.00 52 1017.4
20200329221609 89 202 0.0 3.0 0.00 0.00 0.00 52 1017.2
20200329220105 90 184 1.0 4.0 0.00 0.00 0.00 51 1017.1
20200329213033 91 238 1.0 3.0 0.00 0.00 0.00 50 1017.1
20200329211616 92 226 0.0 4.0 0.00 0.00 0.00 49 1017.2
20200329210031 93 139 1.0 5.0 0.00 0.00 0.00 47 1017.3
20200329203035 92 202 1.0 7.0 0.00 0.00 0.00 49 1017.5
20200329201600 92 12 1.0 7.0 0.00 0.00 0.00 49 1017.5
20200329200033 91 192 2.0 6.0 0.00 0.00 0.00 52 1017.6
20200329193046 92 227 1.0 5.0 0.00 0.00 0.00 51 1017.8
20200329191544 92 173 2.0 6.0 0.00 0.00 0.00 51 1018.1
20200329190115 92 143 2.0 6.0 0.00 0.00 0.00 52 1018.4
20200329183108 90 270 0.0 5.0 0.00 0.00 0.00 55 1018.8
20200329181539 89 211 0.0 5.0 0.00 0.00 0.00 58 1019.0
20200329180049 89 292 1.0 5.0 0.00 0.00 0.00 55 1019.2
20200329173028 88 103 2.0 7.0 0.00 0.00 0.00 56 1019.8
20200329171523 86 171 1.0 7.0 0.00 0.00 0.00 58 1019.8
20200329170030 86 284 1.0 5.0 0.00 0.00 0.00 55 1019.8
20200329163015 86 340 1.0 4.0 0.00 0.00 0.00 63 1020.0
20200329161538 85 227 1.0 4.0 0.00 0.00 0.00 67 1020.2
20200329160005 83 287 1.0 5.0 0.00 0.00 0.00 69 1020.5
20200329153005 81 304 1.0 4.0 0.00 0.00 0.00 75 1020.7
20200329151640 79 135 1.0 3.0 0.00 0.00 0.00 78 1020.9
20200329151505 79 135 1.0 3.0 0.00 0.00 0.00 79 1020.8
20200329150107 78 206 0.0 2.0 0.00 0.00 0.00 81 1020.8
20200329143152 76 144 0.0 3.0 0.00 0.00 0.00 85 1020.8
20200329141728 75 138 0.0 2.0 0.00 0.00 0.00 88 1020.7
20200329140144 74 180 0.0 4.0 0.00 0.00 0.00 89 1020.6
20200329133047 71 188 0.0 2.0 0.00 0.00 0.00 95 1020.4
20200329131711 69 182 0.0 3.0 0.00 0.00 0.00 97 1020.3
20200329130050 68 150 0.0 2.0 0.00 0.00 0.00 98 1020.3
20200329123126 66 165 0.0 2.0 0.00 0.00 0.00 98 1020.0
20200329121547 65 147 0.0 1.0 0.00 0.00 0.00 97 1019.8
20200329120133 64 147 0.0 0.0 0.00 0.00 0.00 97 1019.6
20200329113058 64 147 0.0 0.0 0.00 0.00 0.00 96 1019.1
20200329111618 64 147 0.0 0.0 0.00 0.00 0.00 96 1018.9
20200329110036 64 147 0.0 0.0 0.00 0.00 0.00 96 1018.8
20200329103223 64 147 0.0 0.0 0.00 0.00 0.00 96 1018.5
20200329101647 65 147 0.0 0.0 0.00 0.00 0.00 96 1018.3
20200329100045 65 147 0.0 0.0 0.00 0.00 0.00 96 1018.1
20200329093035 65 147 0.0 0.0 0.00 0.00 0.00 96 1017.8
20200329091612 65 147 0.0 0.0 0.00 0.00 0.00 96 1017.8
20200329090129 65 147 0.0 0.0 0.00 0.00 0.00 96 1017.6
20200329083026 65 147 0.0 0.0 0.00 0.00 0.00 96 1017.6
20200329081536 65 147 0.0 0.0 0.00 0.00 0.00 95 1017.7
20200329080111 66 147 0.0 0.0 0.00 0.00 0.00 95 1017.6
20200329073101 66 147 0.0 0.0 0.00 0.00 0.00 95 1017.6
20200329071542 66 147 0.0 0.0 0.00 0.00 0.00 95 1017.5
20200329070020 66 147 0.0 0.0 0.00 0.00 0.00 94 1017.5
20200329063052 67 147 0.0 0.0 0.00 0.00 0.00 94 1017.6
20200329061521 68 147 0.0 0.0 0.00 0.00 0.00 94 1017.4
20200329060057 68 147 0.0 0.0 0.00 0.00 0.00 93 1017.7
20200329053048 69 147 0.0 0.0 0.00 0.00 0.00 93 1017.8
20200329051523 69 147 0.0 2.0 0.00 0.00 0.00 93 1017.7
20200329050056 69 181 0.0 0.0 0.00 0.00 0.00 93 1017.6
20200329043018 70 220 0.0 0.0 0.00 0.00 0.00 91 1017.6
20200329041608 70 220 0.0 0.0 0.00 0.00 0.00 91 1017.6
20200329040004 71 220 0.0 0.0 0.00 0.00 0.00 89 1017.6
20200329033023 72 220 0.0 0.0 0.00 0.00 0.00 87 1017.5
20200329031520 72 219 0.0 3.0 0.00 0.00 0.00 85 1017.5
20200329030004 73 176 0.0 5.0 0.00 0.00 0.00 84 1017.4
20200329023006 74 181 0.0 2.0 0.00 0.00 0.00 81 1017.2
20200329021504 74 113 0.0 3.0 0.00 0.00 0.00 80 1017.2
20200329020004 75 78 0.0 3.0 0.00 0.00 0.00 78 1017.0